Time,TemperatureF,DewpointF,PressureIn,WindDirection,WindDirectionDegrees,WindSpeedMPH,WindSpeedGustMPH,Humidity,HourlyPrecipIn,Conditions,Clouds,dailyrainin,SolarRadiationWatts/m^2,SoftwareType,DateUTC
2013-06-20 00:01:00,59.1,56.5,29.92,West,270,0.0,0.0,91,0.00,,,0.00,0,WeatherCatV1.15B25,2013-06-20 04:01:00,
2013-06-20 00:06:00,59.0,56.4,29.92,West,270,0.0,0.0,91,0.00,,,0.00,0,WeatherCatV1.15B25,2013-06-20 04:06:00,
2013-06-20 00:11:00,59.0,56.7,29.93,West,270,0.0,0.0,92,0.00,,,0.00,0,WeatherCatV1.15B25,2013-06-20 04:11:00,
2013-06-20 00:16:00,58.9,56.6,29.93,West,270,0.0,0.0,92,0.00,,,0.00,0,WeatherCatV1.15B25,2013-06-20 04:16:00,
2013-06-20 00:21:00,58.8,56.5,29.92,West,270,0.0,0.0,92,0.00,,,0.00,0,WeatherCatV1.15B25,2013-06-20 04:21:00,
2013-06-20 00:26:00,58.7,56.4,29.92,West,270,0.0,0.0,92,0.00,,,0.00,0,WeatherCatV1.15B25,2013-06-20 04:26:00,
2013-06-20 00:31:00,58.6,56.3,29.93,West,270,0.0,0.0,92,0.00,,,0.00,0,WeatherCatV1.15B25,2013-06-20 04:31:00,
2013-06-20 00:36:00,58.4,56.1,29.92,West,270,0.0,0.0,92,0.00,,,0.00,0,WeatherCatV1.15B25,2013-06-20 04:36:00,
2013-06-20 00:41:00,58.2,56.2,29.92,West,270,0.0,0.0,93,0.00,,,0.00,0,WeatherCatV1.15B25,2013-06-20 04:41:00,
2013-06-20 00:46:00,58.1,56.1,29.92,West,270,0.0,0.0,93,0.00,,,0.00,0,WeatherCatV1.15B25,2013-06-20 04:46:00,
2013-06-20 00:51:00,58.0,56.3,29.92,West,270,0.0,0.0,94,0.00,,,0.00,0,WeatherCatV1.15B25,2013-06-20 04:51:00,
2013-06-20 00:56:00,57.9,56.2,29.93,West,270,0.0,0.0,94,0.00,,,0.00,0,WeatherCatV1.15B25,2013-06-20 04:56:00,
2013-06-20 01:01:00,57.8,56.1,29.93,West,270,0.0,0.0,94,0.00,,,0.00,0,WeatherCatV1.15B25,2013-06-20 05:01:00,
2013-06-20 01:06:00,57.6,55.9,29.93,West,270,0.0,0.0,94,0.00,,,0.00,0,WeatherCatV1.15B25,2013-06-20 05:06:00,
2013-06-20 01:11:00,57.4,55.7,29.94,West,270,0.0,0.0,94,0.00,,,0.00,0,WeatherCatV1.15B25,2013-06-20 05:11:00,
2013-06-20 01:16:00,57.2,55.5,29.94,West,270,0.0,0.0,94,0.00,,,0.00,0,WeatherCatV1.15B25,2013-06-20 05:16:00,
2013-06-20 01:21:00,56.9,55.2,29.94,West,270,0.0,0.0,94,0.00,,,0.00,0,WeatherCatV1.15B25,2013-06-20 05:21:00,
2013-06-20 01:26:00,56.8,55.4,29.93,West,270,0.0,0.0,95,0.00,,,0.00,0,WeatherCatV1.15B25,2013-06-20 05:26:00,
2013-06-20 01:31:00,56.6,55.2,29.94,West,270,0.0,0.0,95,0.00,,,0.00,0,WeatherCatV1.15B25,2013-06-20 05:31:00,
2013-06-20 01:36:00,56.3,54.9,29.94,West,270,0.0,0.0,95,0.00,,,0.00,0,WeatherCatV1.15B25,2013-06-20 05:36:00,
2013-06-20 01:41:00,56.2,54.8,29.94,West,270,0.0,0.0,95,0.00,,,0.00,0,WeatherCatV1.15B25,2013-06-20 05:41:00,
2013-06-20 01:46:00,56.0,54.6,29.94,West,270,0.0,0.0,95,0.00,,,0.00,0,WeatherCatV1.15B25,2013-06-20 05:46:00,
2013-06-20 01:51:00,55.9,54.8,29.94,West,270,0.0,0.0,96,0.00,,,0.00,0,WeatherCatV1.15B25,2013-06-20 05:51:00,
2013-06-20 01:56:00,55.8,54.4,29.94,West,270,0.0,0.0,95,0.00,,,0.00,0,WeatherCatV1.15B25,2013-06-20 05:56:00,
2013-06-20 02:01:00,55.7,54.6,29.93,West,270,0.0,0.0,96,0.00,,,0.00,0,WeatherCatV1.15B25,2013-06-20 06:01:00,
2013-06-20 02:06:00,55.5,54.4,29.93,West,270,0.0,0.0,96,0.00,,,0.00,0,WeatherCatV1.15B25,2013-06-20 06:06:00,
2013-06-20 02:11:00,55.5,54.4,29.93,West,270,0.0,0.0,96,0.00,,,0.00,0,WeatherCatV1.15B25,2013-06-20 06:11:00,
2013-06-20 02:16:00,55.4,54.3,29.93,West,270,0.0,0.0,96,0.00,,,0.00,0,WeatherCatV1.15B25,2013-06-20 06:16:00,
2013-06-20 02:21:00,55.3,54.2,29.93,West,270,0.0,0.0,96,0.00,,,0.00,0,WeatherCatV1.15B25,2013-06-20 06:21:00,
2013-06-20 02:26:00,55.3,54.2,29.93,West,270,0.0,0.0,96,0.00,,,0.00,0,WeatherCatV1.15B25,2013-06-20 06:26:00,
2013-06-20 02:31:00,55.2,54.1,29.93,West,270,0.0,0.0,96,0.00,,,0.00,0,WeatherCatV1.15B25,2013-06-20 06:31:00,
2013-06-20 02:36:00,55.0,53.9,29.93,West,270,0.0,0.0,96,0.00,,,0.00,0,WeatherCatV1.15B25,2013-06-20 06:36:00,
2013-06-20 02:41:00,55.0,53.9,29.93,West,270,0.0,0.0,96,0.00,,,0.00,0,WeatherCatV1.15B25,2013-06-20 06:41:00,
2013-06-20 02:46:00,54.8,53.7,29.93,West,270,0.0,0.0,96,0.00,,,0.00,0,WeatherCatV1.15B25,2013-06-20 06:46:00,
2013-06-20 02:51:00,54.7,53.6,29.94,West,270,0.0,0.0,96,0.00,,,0.00,0,WeatherCatV1.15B25,2013-06-20 06:51:00,
2013-06-20 02:56:00,54.5,53.4,29.94,West,270,0.0,0.0,96,0.00,,,0.00,0,WeatherCatV1.15B25,2013-06-20 06:56:00,
2013-06-20 03:01:00,54.5,53.4,29.94,West,270,0.0,0.0,96,0.00,,,0.00,0,WeatherCatV1.15B25,2013-06-20 07:01:00,
2013-06-20 03:06:00,54.4,53.3,29.94,West,270,0.0,0.0,96,0.00,,,0.00,0,WeatherCatV1.15B25,2013-06-20 07:06:00,
2013-06-20 03:11:00,54.4,53.3,29.94,West,270,0.0,0.0,96,0.00,,,0.00,0,WeatherCatV1.15B25,2013-06-20 07:11:00,
2013-06-20 03:16:00,54.4,53.6,29.94,West,270,0.0,0.0,97,0.00,,,0.00,0,WeatherCatV1.15B25,2013-06-20 07:16:00,
2013-06-20 03:21:00,54.3,53.5,29.94,West,270,0.0,0.0,97,0.00,,,0.00,0,WeatherCatV1.15B25,2013-06-20 07:21:00,
2013-06-20 03:26:00,54.4,53.6,29.94,West,270,0.0,0.0,97,0.00,,,0.00,0,WeatherCatV1.15B25,2013-06-20 07:26:00,
2013-06-20 03:31:00,54.3,53.5,29.95,West,270,0.0,0.0,97,0.00,,,0.00,0,WeatherCatV1.15B25,2013-06-20 07:31:00,
2013-06-20 03:36:00,54.3,53.5,29.95,West,270,0.0,0.0,97,0.00,,,0.00,0,WeatherCatV1.15B25,2013-06-20 07:36:00,
2013-06-20 03:41:00,54.3,53.2,29.95,West,270,0.0,0.0,96,0.00,,,0.00,0,WeatherCatV1.15B25,2013-06-20 07:41:00,
2013-06-20 03:46:00,54.1,53.0,29.95,West,270,0.0,0.0,96,0.00,,,0.00,0,WeatherCatV1.15B25,2013-06-20 07:46:00,
2013-06-20 03:51:00,54.1,53.3,29.95,West,270,0.0,0.0,97,0.00,,,0.00,0,WeatherCatV1.15B25,2013-06-20 07:51:00,
2013-06-20 03:56:00,54.1,53.3,29.95,West,270,0.0,0.0,97,0.00,,,0.00,0,WeatherCatV1.15B25,2013-06-20 07:56:00,
2013-06-20 04:01:00,54.1,53.3,29.95,West,270,0.0,0.0,97,0.00,,,0.00,0,WeatherCatV1.15B25,2013-06-20 08:01:00,
2013-06-20 04:06:00,54.0,53.2,29.95,West,270,0.0,0.0,97,0.00,,,0.00,0,WeatherCatV1.15B25,2013-06-20 08:06:00,
2013-06-20 04:11:00,54.0,53.2,29.95,West,270,0.0,0.0,97,0.00,,,0.00,0,WeatherCatV1.15B25,2013-06-20 08:11:00,
2013-06-20 04:16:00,53.8,53.0,29.95,West,270,0.0,0.0,97,0.00,,,0.00,0,WeatherCatV1.15B25,2013-06-20 08:16:00,
2013-06-20 04:21:00,53.8,53.0,29.95,West,270,0.0,0.0,97,0.00,,,0.00,0,WeatherCatV1.15B25,2013-06-20 08:21:00,
2013-06-20 04:26:00,53.6,52.8,29.95,West,270,0.0,0.0,97,0.00,,,0.00,0,WeatherCatV1.15B25,2013-06-20 08:26:00,
2013-06-20 04:31:00,53.6,52.8,29.95,West,270,0.0,0.0,97,0.00,,,0.00,0,WeatherCatV1.15B25,2013-06-20 08:31:00,
2013-06-20 04:36:00,53.5,52.7,29.96,West,270,0.0,0.0,97,0.00,,,0.00,0,WeatherCatV1.15B25,2013-06-20 08:36:00,
2013-06-20 04:41:00,53.5,52.7,29.96,West,270,0.0,0.0,97,0.00,,,0.00,0,WeatherCatV1.15B25,2013-06-20 08:41:00,
2013-06-20 04:46:00,53.5,52.7,29.96,West,270,0.0,0.0,97,0.00,,,0.00,0,WeatherCatV1.15B25,2013-06-20 08:46:00,
2013-06-20 04:51:00,53.4,52.6,29.96,West,270,0.0,0.0,97,0.00,,,0.00,0,WeatherCatV1.15B25,2013-06-20 08:51:00,
2013-06-20 04:56:00,53.3,52.5,29.96,West,270,0.0,0.0,97,0.00,,,0.00,0,WeatherCatV1.15B25,2013-06-20 08:56:00,
2013-06-20 05:01:00,53.2,52.4,29.96,West,270,0.0,0.0,97,0.00,,,0.00,0,WeatherCatV1.15B25,2013-06-20 09:01:00,
2013-06-20 05:06:00,53.1,52.3,29.96,West,270,0.0,0.0,97,0.00,,,0.00,0,WeatherCatV1.15B25,2013-06-20 09:06:00,
2013-06-20 05:11:00,53.0,52.2,29.96,West,270,0.0,0.0,97,0.00,,,0.00,0,WeatherCatV1.15B25,2013-06-20 09:11:00,
2013-06-20 05:16:00,52.9,52.1,29.96,West,270,0.0,0.0,97,0.00,,,0.00,0,WeatherCatV1.15B25,2013-06-20 09:16:00,
2013-06-20 05:21:00,52.7,51.9,29.96,West,270,0.0,0.0,97,0.00,,,0.00,0,WeatherCatV1.15B25,2013-06-20 09:21:00,
2013-06-20 05:26:00,52.6,51.8,29.96,West,270,0.0,0.0,97,0.00,,,0.00,0,WeatherCatV1.15B25,2013-06-20 09:26:00,
2013-06-20 05:31:00,52.6,51.8,29.97,West,270,0.0,0.0,97,0.00,,,0.00,0,WeatherCatV1.15B25,2013-06-20 09:31:00,
2013-06-20 05:36:00,52.6,51.8,29.97,West,270,0.0,0.0,97,0.00,,,0.00,0,WeatherCatV1.15B25,2013-06-20 09:36:00,
2013-06-20 05:41:00,52.7,51.9,29.97,West,270,0.0,0.0,97,0.00,,,0.00,0,WeatherCatV1.15B25,2013-06-20 09:41:00,
2013-06-20 05:46:00,52.5,51.7,29.97,West,270,0.0,0.0,97,0.00,,,0.00,0,WeatherCatV1.15B25,2013-06-20 09:46:00,
2013-06-20 05:51:00,52.5,51.7,29.98,West,270,0.0,0.0,97,0.00,,,0.00,5,WeatherCatV1.15B25,2013-06-20 09:51:00,
2013-06-20 05:56:00,52.4,51.6,29.97,West,270,0.0,0.0,97,0.00,,,0.00,5,WeatherCatV1.15B25,2013-06-20 09:56:00,
2013-06-20 06:01:00,52.4,51.6,29.98,West,270,0.0,0.0,97,0.00,,,0.00,7,WeatherCatV1.15B25,2013-06-20 10:01:00,
2013-06-20 06:06:00,52.6,51.8,29.98,West,270,0.0,0.0,97,0.00,,,0.00,7,WeatherCatV1.15B25,2013-06-20 10:06:00,
2013-06-20 06:11:00,52.7,51.9,29.98,West,270,0.0,0.0,97,0.00,,,0.00,9,WeatherCatV1.15B25,2013-06-20 10:11:00,
2013-06-20 06:16:00,52.8,52.0,29.98,West,270,0.0,0.0,97,0.00,,,0.00,9,WeatherCatV1.15B25,2013-06-20 10:16:00,
2013-06-20 06:21:00,52.9,52.1,29.99,West,270,0.0,0.0,97,0.00,,,0.00,11,WeatherCatV1.15B25,2013-06-20 10:21:00,
2013-06-20 06:26:00,53.1,52.3,29.99,West,270,0.0,0.0,97,0.00,,,0.00,11,WeatherCatV1.15B25,2013-06-20 10:26:00,
2013-06-20 06:31:00,53.3,52.5,29.99,West,270,0.0,0.0,97,0.00,,,0.00,11,WeatherCatV1.15B25,2013-06-20 10:31:00,
2013-06-20 06:36:00,53.5,52.9,29.99,West,270,0.0,0.0,98,0.00,,,0.00,12,WeatherCatV1.15B25,2013-06-20 10:36:00,
2013-06-20 06:41:00,54.0,53.4,29.99,West,270,0.0,0.0,98,0.00,,,0.00,12,WeatherCatV1.15B25,2013-06-20 10:41:00,
2013-06-20 06:46:00,54.2,53.6,29.99,West,270,0.0,0.0,98,0.00,,,0.00,14,WeatherCatV1.15B25,2013-06-20 10:46:00,
2013-06-20 06:51:00,54.6,54.0,30.00,West,270,0.0,0.0,98,0.00,,,0.00,14,WeatherCatV1.15B25,2013-06-20 10:51:00,
2013-06-20 06:56:00,54.8,54.2,30.00,West,270,0.0,0.0,98,0.00,,,0.00,16,WeatherCatV1.15B25,2013-06-20 10:56:00,
2013-06-20 07:01:00,55.2,54.6,30.00,West,270,0.0,0.0,98,0.00,,,0.00,16,WeatherCatV1.15B25,2013-06-20 11:01:00,
2013-06-20 07:06:00,55.5,54.9,30.00,West,270,0.0,0.0,98,0.00,,,0.00,18,WeatherCatV1.15B25,2013-06-20 11:06:00,
2013-06-20 07:11:00,55.9,55.3,30.00,West,270,0.0,0.0,98,0.00,,,0.00,18,WeatherCatV1.15B25,2013-06-20 11:11:00,
2013-06-20 07:16:00,56.3,55.7,30.00,West,270,0.0,0.0,98,0.00,,,0.00,19,WeatherCatV1.15B25,2013-06-20 11:16:00,
2013-06-20 07:21:00,56.6,56.0,30.00,West,270,0.0,0.0,98,0.00,,,0.00,21,WeatherCatV1.15B25,2013-06-20 11:21:00,
2013-06-20 07:26:00,56.9,56.3,30.00,West,270,0.0,0.0,98,0.00,,,0.00,21,WeatherCatV1.15B25,2013-06-20 11:26:00,
2013-06-20 07:31:00,57.3,56.7,30.01,West,270,0.0,0.0,98,0.00,,,0.00,23,WeatherCatV1.15B25,2013-06-20 11:31:00,
2013-06-20 07:36:00,57.6,56.8,30.01,West,270,0.0,0.0,97,0.00,,,0.00,23,WeatherCatV1.15B25,2013-06-20 11:36:00,
2013-06-20 07:41:00,57.9,57.1,30.01,West,270,0.0,0.0,97,0.00,,,0.00,25,WeatherCatV1.15B25,2013-06-20 11:41:00,
2013-06-20 07:46:00,58.2,57.4,30.01,West,270,0.0,0.0,97,0.00,,,0.00,25,WeatherCatV1.15B25,2013-06-20 11:46:00,
2013-06-20 07:51:00,58.8,57.7,30.01,West,270,0.0,0.0,96,0.00,,,0.00,26,WeatherCatV1.15B25,2013-06-20 11:51:00,
2013-06-20 07:56:00,59.4,57.7,30.01,West,270,0.0,0.0,94,0.00,,,0.00,26,WeatherCatV1.15B25,2013-06-20 11:56:00,
2013-06-20 08:01:00,59.9,57.9,30.01,West,270,0.0,0.0,93,0.00,,,0.00,28,WeatherCatV1.15B25,2013-06-20 12:01:00,
2013-06-20 08:06:00,60.4,57.8,30.01,West,270,0.0,0.0,91,0.00,,,0.00,28,WeatherCatV1.15B25,2013-06-20 12:06:00,
2013-06-20 08:11:00,60.8,57.8,30.01,West,270,0.0,0.0,90,0.00,,,0.00,30,WeatherCatV1.15B25,2013-06-20 12:11:00,
2013-06-20 08:16:00,61.3,58.3,30.01,West,270,0.0,0.0,90,0.00,,,0.00,30,WeatherCatV1.15B25,2013-06-20 12:16:00,
2013-06-20 08:21:00,61.8,58.5,30.01,West,270,0.0,0.0,89,0.00,,,0.00,40,WeatherCatV1.15B25,2013-06-20 12:21:00,
2013-06-20 08:26:00,62.2,58.6,30.01,West,270,0.0,0.0,88,0.00,,,0.00,35,WeatherCatV1.15B25,2013-06-20 12:26:00,
2013-06-20 08:31:00,62.7,58.8,30.01,West,270,0.0,0.0,87,0.00,,,0.00,39,WeatherCatV1.15B25,2013-06-20 12:31:00,
2013-06-20 08:36:00,63.2,58.9,30.01,West,270,0.0,1.0,86,0.00,,,0.00,60,WeatherCatV1.15B25,2013-06-20 12:36:00,
2013-06-20 08:41:00,63.7,58.8,30.01,WSW,241,0.0,1.0,84,0.00,,,0.00,35,WeatherCatV1.15B25,2013-06-20 12:41:00,
2013-06-20 08:46:00,64.1,59.2,30.01,SW,215,0.0,1.0,84,0.00,,,0.00,37,WeatherCatV1.15B25,2013-06-20 12:46:00,
2013-06-20 08:51:00,64.6,59.0,30.01,SW,216,0.0,0.0,82,0.00,,,0.00,39,WeatherCatV1.15B25,2013-06-20 12:51:00,
2013-06-20 08:56:00,65.2,59.6,30.01,SW,216,0.0,0.0,82,0.00,,,0.00,39,WeatherCatV1.15B25,2013-06-20 12:56:00,
2013-06-20 09:00:00,65.6,58.9,30.01,SSW,212,0.0,0.0,79,0.00,,,0.00,40,WeatherCatV1.15B25,2013-06-20 13:00:00,
2013-06-20 09:01:00,65.7,59.0,30.01,SSW,202,0.0,0.0,79,0.00,,,0.00,40,WeatherCatV1.15B25,2013-06-20 13:01:00,
2013-06-20 09:05:00,65.8,59.1,30.01,SSW,208,0.0,1.0,79,0.00,,,0.00,40,WeatherCatV1.15B25,2013-06-20 13:05:00,
2013-06-20 09:10:00,65.8,59.1,30.01,SSW,208,0.0,1.0,79,0.00,,,0.00,40,WeatherCatV1.15B25,2013-06-20 13:10:00,
2013-06-20 09:15:00,65.8,59.1,30.01,SSW,208,0.0,1.0,79,0.00,,,0.00,40,WeatherCatV1.15B25,2013-06-20 13:15:00,
2013-06-20 09:20:00,65.8,59.1,30.01,SSW,208,0.0,1.0,79,0.00,,,0.00,40,WeatherCatV1.15B25,2013-06-20 13:20:00,
2013-06-20 09:25:00,65.6,59.3,30.01,SW,225,0.0,3.0,80,0.00,,,0.00,41,WeatherCatV1.15B25,2013-06-20 13:25:00,
2013-06-20 09:30:00,65.6,59.3,30.01,SW,225,0.0,3.0,80,0.00,,,0.00,41,WeatherCatV1.15B25,2013-06-20 13:30:00,
2013-06-20 09:35:00,65.6,59.3,30.01,SW,225,0.0,3.0,80,0.00,,,0.00,41,WeatherCatV1.15B25,2013-06-20 13:35:00,
2013-06-20 09:40:00,65.6,59.3,30.01,SW,225,0.0,3.0,80,0.00,,,0.00,41,WeatherCatV1.15B25,2013-06-20 13:40:00,
2013-06-20 09:45:00,65.6,59.3,30.01,SW,225,0.0,3.0,80,0.00,,,0.00,41,WeatherCatV1.15B25,2013-06-20 13:45:00,
2013-06-20 09:50:00,65.6,59.3,30.01,SW,225,0.0,3.0,80,0.00,,,0.00,41,WeatherCatV1.15B25,2013-06-20 13:50:00,
2013-06-20 09:55:00,67.9,56.9,30.01,SW,225,0.0,4.0,68,0.00,,,0.00,44,WeatherCatV1.15B25,2013-06-20 13:55:00,
2013-06-20 10:00:00,67.9,56.9,30.01,SW,225,0.0,4.0,68,0.00,,,0.00,44,WeatherCatV1.15B25,2013-06-20 14:00:00,
2013-06-20 10:05:00,67.9,56.9,30.01,SW,225,0.0,4.0,68,0.00,,,0.00,44,WeatherCatV1.15B25,2013-06-20 14:05:00,
2013-06-20 10:10:00,67.9,56.9,30.01,SW,225,0.0,4.0,68,0.00,,,0.00,44,WeatherCatV1.15B25,2013-06-20 14:10:00,
2013-06-20 10:15:00,67.9,56.9,30.01,SW,225,0.0,4.0,68,0.00,,,0.00,44,WeatherCatV1.15B25,2013-06-20 14:15:00,
2013-06-20 10:20:00,67.9,56.9,30.01,SW,225,0.0,4.0,68,0.00,,,0.00,44,WeatherCatV1.15B25,2013-06-20 14:20:00,
2013-06-20 10:25:00,69.4,58.0,30.01,South,180,1.0,6.0,67,0.00,,,0.00,53,WeatherCatV1.15B25,2013-06-20 14:25:00,
2013-06-20 10:30:00,69.4,58.0,30.01,South,180,1.0,6.0,67,0.00,,,0.00,53,WeatherCatV1.15B25,2013-06-20 14:30:00,
2013-06-20 10:35:00,69.4,58.0,30.01,South,180,1.0,6.0,67,0.00,,,0.00,53,WeatherCatV1.15B25,2013-06-20 14:35:00,
2013-06-20 10:40:00,69.4,58.0,30.01,South,180,1.0,6.0,67,0.00,,,0.00,53,WeatherCatV1.15B25,2013-06-20 14:40:00,
2013-06-20 10:45:00,69.4,58.0,30.01,South,180,1.0,6.0,67,0.00,,,0.00,53,WeatherCatV1.15B25,2013-06-20 14:45:00,
2013-06-20 10:50:00,69.4,58.0,30.01,South,180,1.0,6.0,67,0.00,,,0.00,53,WeatherCatV1.15B25,2013-06-20 14:50:00,
2013-06-20 10:55:00,70.4,58.9,30.01,South,180,1.0,5.0,67,0.00,,,0.00,61,WeatherCatV1.15B25,2013-06-20 14:55:00,
2013-06-20 11:00:00,70.4,58.9,30.01,South,180,1.0,5.0,67,0.00,,,0.00,61,WeatherCatV1.15B25,2013-06-20 15:00:00,
2013-06-20 11:05:00,70.4,58.9,30.01,South,180,1.0,5.0,67,0.00,,,0.00,61,WeatherCatV1.15B25,2013-06-20 15:05:00,
2013-06-20 11:10:00,70.4,58.9,30.01,South,180,1.0,5.0,67,0.00,,,0.00,61,WeatherCatV1.15B25,2013-06-20 15:10:00,
2013-06-20 11:15:00,70.4,58.9,30.01,South,180,1.0,5.0,67,0.00,,,0.00,61,WeatherCatV1.15B25,2013-06-20 15:15:00,
2013-06-20 11:20:00,70.4,58.9,30.01,South,180,1.0,5.0,67,0.00,,,0.00,61,WeatherCatV1.15B25,2013-06-20 15:20:00,
2013-06-20 11:25:00,71.7,59.7,30.01,South,180,1.0,6.0,66,0.00,,,0.00,97,WeatherCatV1.15B25,2013-06-20 15:25:00,
2013-06-20 11:30:00,71.7,59.7,30.01,South,180,1.0,6.0,66,0.00,,,0.00,97,WeatherCatV1.15B25,2013-06-20 15:30:00,
2013-06-20 11:35:00,71.7,59.7,30.01,South,180,1.0,6.0,66,0.00,,,0.00,97,WeatherCatV1.15B25,2013-06-20 15:35:00,
2013-06-20 11:40:00,71.7,59.7,30.01,South,180,1.0,6.0,66,0.00,,,0.00,97,WeatherCatV1.15B25,2013-06-20 15:40:00,
2013-06-20 11:45:00,71.7,59.7,30.01,South,180,1.0,6.0,66,0.00,,,0.00,97,WeatherCatV1.15B25,2013-06-20 15:45:00,
2013-06-20 11:50:00,71.7,59.7,30.01,South,180,1.0,6.0,66,0.00,,,0.00,97,WeatherCatV1.15B25,2013-06-20 15:50:00,
2013-06-20 11:55:00,73.0,61.8,30.01,SSW,202,1.0,6.0,68,0.00,,,0.00,82,WeatherCatV1.15B25,2013-06-20 15:55:00,
2013-06-20 12:00:00,73.0,61.8,30.01,SSW,202,1.0,6.0,68,0.00,,,0.00,82,WeatherCatV1.15B25,2013-06-20 16:00:00,
2013-06-20 12:05:00,73.0,61.8,30.01,SSW,202,1.0,6.0,68,0.00,,,0.00,82,WeatherCatV1.15B25,2013-06-20 16:05:00,
2013-06-20 12:10:00,73.0,61.8,30.01,SSW,202,1.0,6.0,68,0.00,,,0.00,82,WeatherCatV1.15B25,2013-06-20 16:10:00,
2013-06-20 12:15:00,73.0,61.8,30.01,SSW,202,1.0,6.0,68,0.00,,,0.00,82,WeatherCatV1.15B25,2013-06-20 16:15:00,
2013-06-20 12:20:00,73.0,61.8,30.01,SSW,202,1.0,6.0,68,0.00,,,0.00,82,WeatherCatV1.15B25,2013-06-20 16:20:00,
2013-06-20 12:25:00,74.4,61.4,30.01,WSW,248,1.0,5.0,64,0.00,,,0.00,87,WeatherCatV1.15B25,2013-06-20 16:25:00,
2013-06-20 12:30:00,74.4,61.4,30.01,WSW,248,1.0,5.0,64,0.00,,,0.00,87,WeatherCatV1.15B25,2013-06-20 16:30:00,
2013-06-20 12:35:00,74.4,61.4,30.01,WSW,248,1.0,5.0,64,0.00,,,0.00,87,WeatherCatV1.15B25,2013-06-20 16:35:00,
2013-06-20 12:40:00,74.4,61.4,30.01,WSW,248,1.0,5.0,64,0.00,,,0.00,87,WeatherCatV1.15B25,2013-06-20 16:40:00,
2013-06-20 12:45:00,74.4,61.4,30.01,WSW,248,1.0,5.0,64,0.00,,,0.00,87,WeatherCatV1.15B25,2013-06-20 16:45:00,
2013-06-20 12:50:00,74.4,61.4,30.01,WSW,248,1.0,5.0,64,0.00,,,0.00,87,WeatherCatV1.15B25,2013-06-20 16:50:00,
2013-06-20 12:55:00,75.4,60.1,30.01,SSW,202,1.0,5.0,59,0.00,,,0.00,113,WeatherCatV1.15B25,2013-06-20 16:55:00,
2013-06-20 13:00:00,75.4,60.1,30.01,SSW,202,1.0,5.0,59,0.00,,,0.00,113,WeatherCatV1.15B25,2013-06-20 17:00:00,
2013-06-20 13:05:00,75.4,60.1,30.01,SSW,202,1.0,5.0,59,0.00,,,0.00,113,WeatherCatV1.15B25,2013-06-20 17:05:00,
2013-06-20 13:10:00,75.4,60.1,30.01,SSW,202,1.0,5.0,59,0.00,,,0.00,113,WeatherCatV1.15B25,2013-06-20 17:10:00,
2013-06-20 13:15:00,75.4,60.1,30.01,SSW,202,1.0,5.0,59,0.00,,,0.00,113,WeatherCatV1.15B25,2013-06-20 17:15:00,
2013-06-20 13:20:00,75.4,60.1,30.01,SSW,202,1.0,5.0,59,0.00,,,0.00,113,WeatherCatV1.15B25,2013-06-20 17:20:00,
2013-06-20 13:25:00,76.6,57.6,30.00,SW,225,1.0,7.0,52,0.00,,,0.00,114,WeatherCatV1.15B25,2013-06-20 17:25:00,
2013-06-20 13:30:00,76.6,57.6,30.00,SW,225,1.0,7.0,52,0.00,,,0.00,114,WeatherCatV1.15B25,2013-06-20 17:30:00,
2013-06-20 13:35:00,76.6,57.6,30.00,SW,225,1.0,7.0,52,0.00,,,0.00,114,WeatherCatV1.15B25,2013-06-20 17:35:00,
2013-06-20 13:40:00,76.6,57.6,30.00,SW,225,1.0,7.0,52,0.00,,,0.00,114,WeatherCatV1.15B25,2013-06-20 17:40:00,
2013-06-20 13:45:00,76.6,57.6,30.00,SW,225,1.0,7.0,52,0.00,,,0.00,114,WeatherCatV1.15B25,2013-06-20 17:45:00,
2013-06-20 13:50:00,76.6,57.6,30.00,SW,225,1.0,7.0,52,0.00,,,0.00,114,WeatherCatV1.15B25,2013-06-20 17:50:00,
2013-06-20 13:55:00,77.7,55.8,30.00,South,180,1.0,6.0,47,0.00,,,0.00,171,WeatherCatV1.15B25,2013-06-20 17:55:00,
2013-06-20 14:00:00,77.7,55.8,30.00,South,180,1.0,6.0,47,0.00,,,0.00,171,WeatherCatV1.15B25,2013-06-20 18:00:00,
2013-06-20 14:05:00,77.7,55.8,30.00,South,180,1.0,6.0,47,0.00,,,0.00,171,WeatherCatV1.15B25,2013-06-20 18:05:00,
2013-06-20 14:10:00,77.7,55.8,30.00,South,180,1.0,6.0,47,0.00,,,0.00,171,WeatherCatV1.15B25,2013-06-20 18:10:00,
2013-06-20 14:15:00,77.7,55.8,30.00,South,180,1.0,6.0,47,0.00,,,0.00,171,WeatherCatV1.15B25,2013-06-20 18:15:00,
2013-06-20 14:20:00,77.7,55.8,30.00,South,180,1.0,6.0,47,0.00,,,0.00,171,WeatherCatV1.15B25,2013-06-20 18:20:00,
2013-06-20 14:25:00,79.1,54.7,29.99,South,180,1.0,8.0,43,0.00,,,0.00,938,WeatherCatV1.15B25,2013-06-20 18:25:00,
2013-06-20 14:30:00,79.1,54.7,29.99,South,180,1.0,8.0,43,0.00,,,0.00,938,WeatherCatV1.15B25,2013-06-20 18:30:00,
2013-06-20 14:35:00,79.1,54.7,29.99,South,180,1.0,8.0,43,0.00,,,0.00,938,WeatherCatV1.15B25,2013-06-20 18:35:00,
2013-06-20 14:40:00,79.1,54.7,29.99,South,180,1.0,8.0,43,0.00,,,0.00,938,WeatherCatV1.15B25,2013-06-20 18:40:00,
2013-06-20 14:45:00,79.1,54.7,29.99,South,180,1.0,8.0,43,0.00,,,0.00,938,WeatherCatV1.15B25,2013-06-20 18:45:00,
2013-06-20 14:50:00,79.1,54.7,29.99,South,180,1.0,8.0,43,0.00,,,0.00,938,WeatherCatV1.15B25,2013-06-20 18:50:00,
2013-06-20 14:55:00,78.6,58.9,29.98,SSW,202,0.0,4.0,51,0.00,,,0.00,648,WeatherCatV1.15B25,2013-06-20 18:55:00,
2013-06-20 15:00:00,78.6,58.9,29.98,SSW,202,0.0,4.0,51,0.00,,,0.00,648,WeatherCatV1.15B25,2013-06-20 19:00:00,
2013-06-20 15:05:00,78.6,58.9,29.98,SSW,202,0.0,4.0,51,0.00,,,0.00,648,WeatherCatV1.15B25,2013-06-20 19:05:00,
2013-06-20 15:10:00,78.6,58.9,29.98,SSW,202,0.0,4.0,51,0.00,,,0.00,648,WeatherCatV1.15B25,2013-06-20 19:10:00,
2013-06-20 15:15:00,78.6,58.9,29.98,SSW,202,0.0,4.0,51,0.00,,,0.00,648,WeatherCatV1.15B25,2013-06-20 19:15:00,
2013-06-20 15:20:00,78.6,58.9,29.98,SSW,202,0.0,4.0,51,0.00,,,0.00,648,WeatherCatV1.15B25,2013-06-20 19:20:00,
2013-06-20 15:25:00,80.0,57.3,29.98,South,180,1.0,6.0,46,0.00,,,0.00,863,WeatherCatV1.15B25,2013-06-20 19:25:00,
2013-06-20 15:30:00,80.0,57.3,29.98,South,180,1.0,6.0,46,0.00,,,0.00,863,WeatherCatV1.15B25,2013-06-20 19:30:00,
2013-06-20 15:35:00,80.0,57.3,29.98,South,180,1.0,6.0,46,0.00,,,0.00,863,WeatherCatV1.15B25,2013-06-20 19:35:00,
2013-06-20 15:40:00,80.0,57.3,29.98,South,180,1.0,6.0,46,0.00,,,0.00,863,WeatherCatV1.15B25,2013-06-20 19:40:00,
2013-06-20 15:45:00,80.0,57.3,29.98,South,180,1.0,6.0,46,0.00,,,0.00,863,WeatherCatV1.15B25,2013-06-20 19:45:00,
2013-06-20 15:50:00,80.0,57.3,29.98,South,180,1.0,6.0,46,0.00,,,0.00,863,WeatherCatV1.15B25,2013-06-20 19:50:00,
2013-06-20 15:55:00,80.5,58.4,29.98,SW,225,1.0,7.0,47,0.00,,,0.00,885,WeatherCatV1.15B25,2013-06-20 19:55:00,
2013-06-20 16:00:00,80.5,58.4,29.98,SW,225,1.0,7.0,47,0.00,,,0.00,885,WeatherCatV1.15B25,2013-06-20 20:00:00,
2013-06-20 16:05:00,80.5,58.4,29.98,SW,225,1.0,7.0,47,0.00,,,0.00,885,WeatherCatV1.15B25,2013-06-20 20:05:00,
2013-06-20 16:10:00,80.5,58.4,29.98,SW,225,1.0,7.0,47,0.00,,,0.00,885,WeatherCatV1.15B25,2013-06-20 20:10:00,
2013-06-20 16:15:00,80.5,58.4,29.98,SW,225,1.0,7.0,47,0.00,,,0.00,885,WeatherCatV1.15B25,2013-06-20 20:15:00,
2013-06-20 16:20:00,80.5,58.4,29.98,SW,225,1.0,7.0,47,0.00,,,0.00,885,WeatherCatV1.15B25,2013-06-20 20:20:00,
2013-06-20 16:25:00,78.5,57.1,29.98,SSW,202,1.0,6.0,48,0.00,,,0.00,557,WeatherCatV1.15B25,2013-06-20 20:25:00,
2013-06-20 16:30:00,78.5,57.1,29.98,SSW,202,1.0,6.0,48,0.00,,,0.00,557,WeatherCatV1.15B25,2013-06-20 20:30:00,
2013-06-20 16:35:00,78.5,57.1,29.98,SSW,202,1.0,6.0,48,0.00,,,0.00,557,WeatherCatV1.15B25,2013-06-20 20:35:00,
2013-06-20 16:40:00,78.5,57.1,29.98,SSW,202,1.0,6.0,48,0.00,,,0.00,557,WeatherCatV1.15B25,2013-06-20 20:40:00,
2013-06-20 16:45:00,78.5,57.1,29.98,SSW,202,1.0,6.0,48,0.00,,,0.00,557,WeatherCatV1.15B25,2013-06-20 20:45:00,
2013-06-20 16:50:00,78.5,57.1,29.98,SSW,202,1.0,6.0,48,0.00,,,0.00,557,WeatherCatV1.15B25,2013-06-20 20:50:00,
2013-06-20 16:55:00,77.7,58.7,29.97,WSW,248,0.0,4.0,52,0.00,,,0.00,133,WeatherCatV1.15B25,2013-06-20 20:55:00,
2013-06-20 17:00:00,77.7,58.7,29.97,WSW,248,0.0,4.0,52,0.00,,,0.00,133,WeatherCatV1.15B25,2013-06-20 21:00:00,
2013-06-20 17:05:00,77.7,58.7,29.97,WSW,248,0.0,4.0,52,0.00,,,0.00,133,WeatherCatV1.15B25,2013-06-20 21:05:00,
2013-06-20 17:10:00,77.7,58.7,29.97,WSW,248,0.0,4.0,52,0.00,,,0.00,133,WeatherCatV1.15B25,2013-06-20 21:10:00,
2013-06-20 17:15:00,77.7,58.7,29.97,WSW,248,0.0,4.0,52,0.00,,,0.00,133,WeatherCatV1.15B25,2013-06-20 21:15:00,
2013-06-20 17:20:00,77.7,58.7,29.97,WSW,248,0.0,4.0,52,0.00,,,0.00,133,WeatherCatV1.15B25,2013-06-20 21:20:00,
2013-06-20 17:25:00,78.4,58.2,29.97,SSW,202,0.0,3.0,50,0.00,,,0.00,300,WeatherCatV1.15B25,2013-06-20 21:25:00,
2013-06-20 17:30:00,78.4,58.2,29.97,SSW,202,0.0,3.0,50,0.00,,,0.00,300,WeatherCatV1.15B25,2013-06-20 21:30:00,
2013-06-20 17:35:00,78.4,58.2,29.97,SSW,202,0.0,3.0,50,0.00,,,0.00,300,WeatherCatV1.15B25,2013-06-20 21:35:00,
2013-06-20 17:40:00,78.4,58.2,29.97,SSW,202,0.0,3.0,50,0.00,,,0.00,300,WeatherCatV1.15B25,2013-06-20 21:40:00,
2013-06-20 17:45:00,78.4,58.2,29.97,SSW,202,0.0,3.0,50,0.00,,,0.00,300,WeatherCatV1.15B25,2013-06-20 21:45:00,
2013-06-20 17:50:00,78.4,58.2,29.97,SSW,202,0.0,3.0,50,0.00,,,0.00,300,WeatherCatV1.15B25,2013-06-20 21:50:00,
2013-06-20 17:55:00,79.9,57.8,29.97,South,180,0.0,4.0,47,0.00,,,0.00,427,WeatherCatV1.15B25,2013-06-20 21:55:00,
2013-06-20 18:00:00,79.9,57.8,29.97,South,180,0.0,4.0,47,0.00,,,0.00,427,WeatherCatV1.15B25,2013-06-20 22:00:00,
2013-06-20 18:05:00,79.9,57.8,29.97,South,180,0.0,4.0,47,0.00,,,0.00,427,WeatherCatV1.15B25,2013-06-20 22:05:00,
2013-06-20 18:10:00,79.9,57.8,29.97,South,180,0.0,4.0,47,0.00,,,0.00,427,WeatherCatV1.15B25,2013-06-20 22:10:00,
2013-06-20 18:15:00,79.9,57.8,29.97,South,180,0.0,4.0,47,0.00,,,0.00,427,WeatherCatV1.15B25,2013-06-20 22:15:00,
2013-06-20 18:20:00,79.9,57.8,29.97,South,180,0.0,4.0,47,0.00,,,0.00,427,WeatherCatV1.15B25,2013-06-20 22:20:00,
2013-06-20 18:25:00,80.0,58.5,29.97,SSW,202,0.0,5.0,48,0.00,,,0.00,145,WeatherCatV1.15B25,2013-06-20 22:25:00,
2013-06-20 18:30:00,80.0,58.5,29.97,SSW,202,0.0,5.0,48,0.00,,,0.00,145,WeatherCatV1.15B25,2013-06-20 22:30:00,
2013-06-20 18:35:00,80.0,58.5,29.97,SSW,202,0.0,5.0,48,0.00,,,0.00,145,WeatherCatV1.15B25,2013-06-20 22:35:00,
2013-06-20 18:40:00,80.0,58.5,29.97,SSW,202,0.0,5.0,48,0.00,,,0.00,145,WeatherCatV1.15B25,2013-06-20 22:40:00,
2013-06-20 18:45:00,80.0,58.5,29.97,SSW,202,0.0,5.0,48,0.00,,,0.00,145,WeatherCatV1.15B25,2013-06-20 22:45:00,
2013-06-20 18:50:00,80.0,58.5,29.97,SSW,202,0.0,5.0,48,0.00,,,0.00,145,WeatherCatV1.15B25,2013-06-20 22:50:00,
2013-06-20 18:55:00,80.0,59.1,29.97,SSW,202,0.0,3.0,49,0.00,,,0.00,149,WeatherCatV1.15B25,2013-06-20 22:55:00,
2013-06-20 19:00:00,80.0,59.1,29.97,SSW,202,0.0,3.0,49,0.00,,,0.00,149,WeatherCatV1.15B25,2013-06-20 23:00:00,
2013-06-20 19:05:00,80.0,59.1,29.97,SSW,202,0.0,3.0,49,0.00,,,0.00,149,WeatherCatV1.15B25,2013-06-20 23:05:00,
2013-06-20 19:10:00,80.0,59.1,29.97,SSW,202,0.0,3.0,49,0.00,,,0.00,149,WeatherCatV1.15B25,2013-06-20 23:10:00,
2013-06-20 19:15:00,80.0,59.1,29.97,SSW,202,0.0,3.0,49,0.00,,,0.00,149,WeatherCatV1.15B25,2013-06-20 23:15:00,
2013-06-20 19:20:00,80.0,59.1,29.97,SSW,202,0.0,3.0,49,0.00,,,0.00,149,WeatherCatV1.15B25,2013-06-20 23:20:00,
2013-06-20 19:25:00,78.6,58.9,29.97,SSW,202,0.0,4.0,51,0.00,,,0.00,127,WeatherCatV1.15B25,2013-06-20 23:25:00,
2013-06-20 19:30:00,78.6,58.9,29.97,SSW,202,0.0,4.0,51,0.00,,,0.00,127,WeatherCatV1.15B25,2013-06-20 23:30:00,
2013-06-20 19:35:00,78.6,58.9,29.97,SSW,202,0.0,4.0,51,0.00,,,0.00,127,WeatherCatV1.15B25,2013-06-20 23:35:00,
2013-06-20 19:40:00,78.6,58.9,29.97,SSW,202,0.0,4.0,51,0.00,,,0.00,127,WeatherCatV1.15B25,2013-06-20 23:40:00,
2013-06-20 19:45:00,78.6,58.9,29.97,SSW,202,0.0,4.0,51,0.00,,,0.00,127,WeatherCatV1.15B25,2013-06-20 23:45:00,
2013-06-20 19:50:00,78.6,58.9,29.97,SSW,202,0.0,4.0,51,0.00,,,0.00,127,WeatherCatV1.15B25,2013-06-20 23:50:00,
2013-06-20 20:02:00,75.8,59.0,29.97,WSW,238,0.0,0.0,56,0.00,,,0.00,12,WeatherCatV1.15B25,2013-06-21 00:02:00,
2013-06-20 20:07:00,74.9,59.1,29.98,SW,221,0.0,0.0,58,0.00,,,0.00,7,WeatherCatV1.15B25,2013-06-21 00:07:00,
2013-06-20 20:12:00,74.4,59.6,29.98,SW,221,0.0,0.0,60,0.00,,,0.00,5,WeatherCatV1.15B25,2013-06-21 00:12:00,
2013-06-20 20:17:00,73.5,61.0,29.98,SW,221,0.0,0.0,65,0.00,,,0.00,0,WeatherCatV1.15B25,2013-06-21 00:17:00,
2013-06-20 20:22:00,72.5,60.5,29.97,SW,221,0.0,0.0,66,0.00,,,0.00,0,WeatherCatV1.15B25,2013-06-21 00:22:00,
2013-06-20 20:27:00,71.9,60.8,29.97,SW,221,0.0,0.0,68,0.00,,,0.00,0,WeatherCatV1.15B25,2013-06-21 00:27:00,
2013-06-20 20:32:00,71.3,60.6,29.97,SW,221,0.0,0.0,69,0.00,,,0.00,0,WeatherCatV1.15B25,2013-06-21 00:32:00,
2013-06-20 20:37:00,70.9,60.2,29.97,SW,221,0.0,0.0,69,0.00,,,0.00,0,WeatherCatV1.15B25,2013-06-21 00:37:00,
2013-06-20 20:42:00,70.5,60.2,29.97,SW,221,0.0,0.0,70,0.00,,,0.00,0,WeatherCatV1.15B25,2013-06-21 00:42:00,
2013-06-20 20:47:00,70.1,60.6,29.98,SW,221,0.0,0.0,72,0.00,,,0.00,0,WeatherCatV1.15B25,2013-06-21 00:47:00,
2013-06-20 20:52:00,69.7,60.6,29.98,SW,221,0.0,0.0,73,0.00,,,0.00,0,WeatherCatV1.15B25,2013-06-21 00:52:00,
2013-06-20 20:57:00,69.3,60.3,29.98,SW,221,0.0,0.0,73,0.00,,,0.00,0,WeatherCatV1.15B25,2013-06-21 00:57:00,
2013-06-20 21:02:00,68.8,60.2,29.98,SW,221,0.0,0.0,74,0.00,,,0.00,0,WeatherCatV1.15B25,2013-06-21 01:02:00,
2013-06-20 21:07:00,68.3,60.4,29.98,SW,221,0.0,0.0,76,0.00,,,0.00,0,WeatherCatV1.15B25,2013-06-21 01:07:00,
2013-06-20 21:12:00,67.9,60.4,29.98,SW,221,0.0,0.0,77,0.00,,,0.00,0,WeatherCatV1.15B25,2013-06-21 01:12:00,
2013-06-20 21:17:00,67.4,60.3,29.98,SW,221,0.0,0.0,78,0.00,,,0.00,0,WeatherCatV1.15B25,2013-06-21 01:17:00,
2013-06-20 21:22:00,67.1,60.4,29.98,SW,221,0.0,0.0,79,0.00,,,0.00,0,WeatherCatV1.15B25,2013-06-21 01:22:00,
2013-06-20 21:27:00,66.8,60.4,29.98,SW,221,0.0,0.0,80,0.00,,,0.00,0,WeatherCatV1.15B25,2013-06-21 01:27:00,
2013-06-20 21:32:00,66.5,60.1,29.98,SW,221,0.0,0.0,80,0.00,,,0.00,0,WeatherCatV1.15B25,2013-06-21 01:32:00,
2013-06-20 21:37:00,66.1,60.1,29.99,SW,221,0.0,0.0,81,0.00,,,0.00,0,WeatherCatV1.15B25,2013-06-21 01:37:00,
2013-06-20 21:42:00,65.9,59.9,29.99,SW,221,0.0,0.0,81,0.00,,,0.00,0,WeatherCatV1.15B25,2013-06-21 01:42:00,
2013-06-20 21:47:00,66.6,59.5,29.99,SW,215,1.0,1.0,78,0.00,,,0.00,0,WeatherCatV1.15B25,2013-06-21 01:47:00,
2013-06-20 21:52:00,67.2,59.4,29.99,South,182,0.0,0.0,76,0.00,,,0.00,0,WeatherCatV1.15B25,2013-06-21 01:52:00,
2013-06-20 21:57:00,68.0,58.2,30.00,South,190,0.0,2.0,71,0.00,,,0.00,0,WeatherCatV1.15B25,2013-06-21 01:57:00,
2013-06-20 22:02:00,68.5,58.3,30.00,South,190,0.0,0.0,70,0.00,,,0.00,0,WeatherCatV1.15B25,2013-06-21 02:02:00,
2013-06-20 22:07:00,68.8,58.2,29.99,South,190,0.0,0.0,69,0.00,,,0.00,0,WeatherCatV1.15B25,2013-06-21 02:07:00,
2013-06-20 22:12:00,69.1,57.7,29.99,SSW,206,0.0,2.0,67,0.00,,,0.00,0,WeatherCatV1.15B25,2013-06-21 02:12:00,
2013-06-20 22:17:00,69.0,58.0,29.99,SSW,199,0.0,0.0,68,0.00,,,0.00,0,WeatherCatV1.15B25,2013-06-21 02:17:00,
2013-06-20 22:22:00,68.9,57.1,29.99,SSW,200,0.0,2.0,66,0.00,,,0.00,0,WeatherCatV1.15B25,2013-06-21 02:22:00,
2013-06-20 22:27:00,68.9,56.6,29.99,South,191,0.0,0.0,65,0.00,,,0.00,0,WeatherCatV1.15B25,2013-06-21 02:27:00,
2013-06-20 22:32:00,68.8,56.5,30.00,SW,215,0.0,0.0,65,0.00,,,0.00,0,WeatherCatV1.15B25,2013-06-21 02:32:00,
2013-06-20 22:37:00,68.7,56.4,30.00,SW,214,0.0,0.0,65,0.00,,,0.00,0,WeatherCatV1.15B25,2013-06-21 02:37:00,
2013-06-20 22:42:00,68.5,56.3,30.00,SW,214,0.0,1.0,65,0.00,,,0.00,0,WeatherCatV1.15B25,2013-06-21 02:42:00,
2013-06-20 22:47:00,68.4,56.2,30.00,SSW,193,0.0,2.0,65,0.00,,,0.00,0,WeatherCatV1.15B25,2013-06-21 02:47:00,
2013-06-20 22:52:00,68.3,56.1,30.00,SSW,194,0.0,0.0,65,0.00,,,0.00,0,WeatherCatV1.15B25,2013-06-21 02:52:00,
2013-06-20 22:57:00,68.1,55.9,30.00,SW,223,0.0,2.0,65,0.00,,,0.00,0,WeatherCatV1.15B25,2013-06-21 02:57:00,
2013-06-20 23:02:00,67.9,55.7,30.01,SW,223,0.0,1.0,65,0.00,,,0.00,0,WeatherCatV1.15B25,2013-06-21 03:02:00,
2013-06-20 23:07:00,67.7,55.5,30.01,SW,220,0.0,1.0,65,0.00,,,0.00,0,WeatherCatV1.15B25,2013-06-21 03:07:00,
2013-06-20 23:12:00,67.5,55.3,30.00,SW,220,0.0,0.0,65,0.00,,,0.00,0,WeatherCatV1.15B25,2013-06-21 03:12:00,
2013-06-20 23:17:00,67.4,55.2,30.01,SSW,194,0.0,0.0,65,0.00,,,0.00,0,WeatherCatV1.15B25,2013-06-21 03:17:00,
2013-06-20 23:22:00,67.2,55.9,30.01,SSW,194,0.0,0.0,67,0.00,,,0.00,0,WeatherCatV1.15B25,2013-06-21 03:22:00,
2013-06-20 23:27:00,66.8,55.5,30.01,SSW,194,0.0,1.0,67,0.00,,,0.00,0,WeatherCatV1.15B25,2013-06-21 03:27:00,
2013-06-20 23:32:00,66.8,55.5,30.01,SSW,193,0.0,0.0,67,0.00,,,0.00,0,WeatherCatV1.15B25,2013-06-21 03:32:00,
2013-06-20 23:37:00,66.6,54.9,30.01,SSW,194,0.0,1.0,66,0.00,,,0.00,0,WeatherCatV1.15B25,2013-06-21 03:37:00,
2013-06-20 23:42:00,66.5,54.8,30.01,SSW,194,0.0,1.0,66,0.00,,,0.00,0,WeatherCatV1.15B25,2013-06-21 03:42:00,
2013-06-20 23:47:00,66.3,55.0,30.01,SSW,194,0.0,0.0,67,0.00,,,0.00,0,WeatherCatV1.15B25,2013-06-21 03:47:00,
2013-06-20 23:52:00,66.1,54.8,30.01,SSW,194,0.0,0.0,67,0.00,,,0.00,0,WeatherCatV1.15B25,2013-06-21 03:52:00,
2013-06-20 23:57:00,66.0,54.7,30.02,South,191,0.0,0.0,67,0.00,,,0.00,0,WeatherCatV1.15B25,2013-06-21 03:57:00,